When you browse on this site, cookies collect data to enhance your experience and personalize the content and advertising you see.
Visit our Privacy Policy to learn more. By continuing to use the site, you agree to this use of cookies and data.
  • In Austria
  • List of Countries
  • For 7 days
  • Water Temperature
  • Satellite Maps
  • Weather Map
  • News
  • Weather Widgets
  • user-avatar
    Login

    Hourly Weather Salta

    Today, 16 January, Wednesday

    Time Temperature Precipitation Wind Pressure Humidity
    00:00 +20°C° 0 mm 1 mps 651 mmHg 93%
    01:00 +18°C° 0 mm 0 mps 651 mmHg 93%
    02:00 +18°C° 0 mm 0 mps 651 mmHg 92%
    03:00 +17°C° 0 mm 0 mps 651 mmHg 92%
    04:00 +17°C° 0 mm 0 mps 651 mmHg 92%
    05:00 +17°C° 0 mm 0 mps 650 mmHg 92%
    06:00 +18°C° 0 mm 0 mps 651 mmHg 88%
    07:00 +21°C° 0 mm 1 mps 651 mmHg 84%
    08:00 +22°C° 0 mm 1 mps 652 mmHg 79%
    09:00 +24°C° 0 mm 1 mps 652 mmHg 72%
    10:00 +26°C° 0 mm 2 mps 652 mmHg 64%
    11:00 +28°C° 0 mm 2 mps 653 mmHg 57%
    12:00 +29°C° 0 mm 2 mps 652 mmHg 57%
    13:00 +29°C° 0 mm 2 mps 651 mmHg 58%
    14:00 +29°C° 0 mm 3 mps 651 mmHg 58%
    15:00 +28°C° 0 mm 2 mps 650 mmHg 61%
    16:00 +28°C° 0 mm 2 mps 650 mmHg 63%
    17:00 +27°C° 0 mm 2 mps 649 mmHg 66%
    18:00 +26°C° 0 mm 2 mps 649 mmHg 72%
    19:00 +24°C° 0 mm 1 mps 649 mmHg 78%
    20:00 +23°C° 0 mm 1 mps 649 mmHg 84%
    21:00 +23°C° 0 mm 1 mps 649 mmHg 87%
    22:00 +22°C° 0 mm 1 mps 650 mmHg 89%
    23:00 +22°C° 0 mm 1 mps 650 mmHg 92%

    Tomorrow, 17 January, Thursday

    Time Temperature Precipitation Wind Pressure Humidity
    00:00 +22°C° 0.3 mm 1 mps 650 mmHg 89%
    01:00 +22°C° 0.3 mm 1 mps 650 mmHg 87%
    02:00 +22°C° 0.3 mm 1 mps 649 mmHg 85%
    03:00 +21°C° 0.2 mm 1 mps 649 mmHg 84%
    04:00 +21°C° 0.2 mm 1 mps 649 mmHg 84%
    05:00 +21°C° 0.2 mm 1 mps 649 mmHg 84%
    06:00 +23°C° 0.1 mm 1 mps 650 mmHg 79%
    07:00 +24°C° 0.1 mm 1 mps 651 mmHg 74%
    08:00 +26°C° 0.1 mm 1 mps 652 mmHg 69%
    09:00 +27°C° 0.1 mm 2 mps 652 mmHg 63%
    10:00 +29°C° 0.1 mm 2 mps 652 mmHg 58%
    11:00 +31°C° 0.1 mm 2 mps 653 mmHg 52%
    12:00 +30°C° 0.9 mm 2 mps 652 mmHg 56%
    13:00 +30°C° 0.9 mm 3 mps 652 mmHg 60%
    14:00 +29°C° 0.9 mm 3 mps 651 mmHg 63%
    15:00 +27°C° 4.1 mm 3 mps 651 mmHg 73%
    16:00 +25°C° 4.1 mm 3 mps 650 mmHg 83%
    17:00 +21°C° 4.1 mm 3 mps 649 mmHg 92%
    18:00 +21°C° 1 mm 2 mps 650 mmHg 92%
    19:00 +21°C° 1 mm 2 mps 651 mmHg 93%
    20:00 +21°C° 1 mm 1 mps 651 mmHg 93%
    21:00 +21°C° 0.4 mm 1 mps 652 mmHg 94%
    22:00 +20°C° 0.4 mm 1 mps 653 mmHg 96%
    23:00 +19°C° 0.4 mm 2 mps 654 mmHg 97%

    Day after tomorrow, 18 January, Friday

    Time Temperature Precipitation Wind Pressure Humidity
    00:00 +20°C° 0.3 mm 1 mps 653 mmHg 97%
    01:00 +19°C° 0.3 mm 1 mps 653 mmHg 96%
    02:00 +19°C° 0.3 mm 1 mps 652 mmHg 96%
    03:00 +19°C° 0.4 mm 1 mps 652 mmHg 96%
    04:00 +19°C° 0.4 mm 1 mps 652 mmHg 97%
    05:00 +18°C° 0.4 mm 1 mps 652 mmHg 97%
    06:00 +18°C° 0.2 mm 1 mps 653 mmHg 97%
    07:00 +18°C° 0.2 mm 1 mps 653 mmHg 97%
    08:00 +18°C° 0.2 mm 1 mps 654 mmHg 97%
    09:00 +18°C° 0.1 mm 1 mps 654 mmHg 96%
    10:00 +18°C° 0.1 mm 1 mps 654 mmHg 94%
    11:00 +18°C° 0.1 mm 1 mps 654 mmHg 93%
    12:00 +20°C° 0 mm 1 mps 654 mmHg 85%
    13:00 +20°C° 0 mm 2 mps 654 mmHg 77%
    14:00 +23°C° 0 mm 2 mps 653 mmHg 70%
    15:00 +23°C° 0 mm 2 mps 653 mmHg 70%
    16:00 +23°C° 0 mm 2 mps 652 mmHg 70%
    17:00 +23°C° 0 mm 2 mps 652 mmHg 71%
    18:00 +21°C° 0 mm 1 mps 652 mmHg 76%
    19:00 +20°C° 0 mm 1 mps 652 mmHg 81%
    20:00 +19°C° 0 mm 1 mps 652 mmHg 87%
    21:00 +19°C° 0 mm 1 mps 653 mmHg 90%
    22:00 +18°C° 0 mm 1 mps 653 mmHg 92%
    23:00 +16°C° 0 mm 0 mps 653 mmHg 95%

    19 January, Saturday

    Time Temperature Precipitation Wind Pressure Humidity
    00:00 +16°C° 0 mm 0 mps 653 mmHg 95%
    01:00 +16°C° 0 mm 0 mps 653 mmHg 96%
    02:00 +16°C° 0 mm 0 mps 652 mmHg 96%
    03:00 +16°C° 0 mm 0 mps 652 mmHg 96%
    04:00 +16°C° 0 mm 0 mps 652 mmHg 96%
    05:00 +15°C° 0 mm 0 mps 652 mmHg 96%
    06:00 +18°C° 0 mm 1 mps 653 mmHg 92%
    07:00 +19°C° 0 mm 1 mps 654 mmHg 87%
    08:00 +20°C° 0 mm 1 mps 654 mmHg 83%
    09:00 +21°C° 0 mm 1 mps 654 mmHg 77%
    10:00 +23°C° 0 mm 2 mps 655 mmHg 72%
    11:00 +24°C° 0 mm 2 mps 655 mmHg 66%
    12:00 +25°C° 0 mm 2 mps 654 mmHg 64%
    13:00 +25°C° 0 mm 2 mps 653 mmHg 63%
    14:00 +26°C° 0 mm 2 mps 653 mmHg 61%
    15:00 +26°C° 0 mm 2 mps 652 mmHg 62%
    16:00 +25°C° 0 mm 2 mps 652 mmHg 63%
    17:00 +25°C° 0 mm 2 mps 651 mmHg 64%
    18:00 +24°C° 0 mm 2 mps 651 mmHg 72%
    19:00 +22°C° 0 mm 1 mps 651 mmHg 80%
    20:00 +21°C° 0 mm 1 mps 651 mmHg 88%
    21:00 +18°C° 0.1 mm 0 mps 652 mmHg 90%
    22:00 +18°C° 0.1 mm 0 mps 652 mmHg 92%
    23:00 +17°C° 0.1 mm 0 mps 653 mmHg 94%

    20 January, Sunday

    Time Temperature Precipitation Wind Pressure Humidity
    00:00 +17°C° 0 mm 0 mps 652 mmHg 94%
    01:00 +17°C° 0 mm 0 mps 652 mmHg 94%
    02:00 +17°C° 0 mm 0 mps 651 mmHg 94%
    03:00 +16°C° 0 mm 0 mps 651 mmHg 94%
    04:00 +16°C° 0 mm 0 mps 651 mmHg 94%
    05:00 +16°C° 0 mm 0 mps 651 mmHg 94%
    06:00 +19°C° 0 mm 1 mps 651 mmHg 90%
    07:00 +20°C° 0 mm 1 mps 652 mmHg 86%
    08:00 +22°C° 0 mm 1 mps 653 mmHg 81%
    09:00 +23°C° 0 mm 2 mps 653 mmHg 76%
    10:00 +25°C° 0 mm 2 mps 653 mmHg 70%
    11:00 +26°C° 0 mm 3 mps 653 mmHg 64%
    12:00 +27°C° 0 mm 3 mps 652 mmHg 62%
    13:00 +28°C° 0 mm 3 mps 652 mmHg 60%
    14:00 +28°C° 0 mm 3 mps 651 mmHg 58%
    15:00 +28°C° 0 mm 3 mps 651 mmHg 57%
    16:00 +28°C° 0 mm 3 mps 650 mmHg 56%
    17:00 +28°C° 0 mm 3 mps 649 mmHg 56%
    18:00 +26°C° 0 mm 2 mps 649 mmHg 64%
    19:00 +25°C° 0 mm 2 mps 649 mmHg 71%
    20:00 +23°C° 0 mm 1 mps 649 mmHg 79%
    21:00 +22°C° 0 mm 1 mps 649 mmHg 82%
    22:00 +21°C° 0 mm 1 mps 650 mmHg 86%
    23:00 +19°C° 0 mm 0 mps 650 mmHg 89%

    21 January, Monday

    Time Temperature Precipitation Wind Pressure Humidity
    00:00 +19°C° 0 mm 0 mps 649 mmHg 90%
    01:00 +18°C° 0 mm 0 mps 649 mmHg 91%
    02:00 +18°C° 0 mm 0 mps 648 mmHg 92%
    03:00 +20°C° 0 mm 1 mps 648 mmHg 92%
    04:00 +20°C° 0 mm 1 mps 648 mmHg 92%
    05:00 +20°C° 0 mm 1 mps 648 mmHg 92%
    06:00 +21°C° 0 mm 1 mps 649 mmHg 85%
    07:00 +23°C° 0 mm 1 mps 650 mmHg 79%
    08:00 +24°C° 0 mm 1 mps 651 mmHg 72%
    09:00 +26°C° 0 mm 2 mps 651 mmHg 66%
    10:00 +28°C° 0 mm 2 mps 652 mmHg 59%
    11:00 +30°C° 0 mm 3 mps 652 mmHg 52%
    12:00 +31°C° 0 mm 3 mps 652 mmHg 49%
    13:00 +33°C° 0 mm 3 mps 652 mmHg 47%
    14:00 +34°C° 0 mm 3 mps 651 mmHg 44%
    15:00 +33°C° 0 mm 3 mps 651 mmHg 46%
    16:00 +31°C° 0 mm 2 mps 650 mmHg 47%
    17:00 +31°C° 0 mm 2 mps 650 mmHg 48%
    18:00 +29°C° 0 mm 2 mps 650 mmHg 55%
    19:00 +27°C° 0 mm 1 mps 650 mmHg 62%
    20:00 +25°C° 0 mm 1 mps 651 mmHg 69%
    21:00 +24°C° 0 mm 1 mps 651 mmHg 69%
    22:00 +24°C° 0 mm 1 mps 651 mmHg 70%
    23:00 +24°C° 0 mm 1 mps 652 mmHg 70%
    Show more